Starlink 11550

operational
NORAD ID: 63052 Int'l Des: 2025-035 Owner: SPXS Country: US Constellation: starlink
LEOCIRCULAR

About Starlink 11550

Description loading...

Live Position

Loading 3D Globe...

Upcoming Passes

Altitude History

Altitude vs Time

uPlot chart will show altitude changes over time

Two-Line Element Set

1 63052U 25035A 25344.29421999 .00288004 00000-0 21637-2 0 9997
2 63052 43.0003 193.9805 0001412 9.0990 350.9903 15.70921122 47165
Epoch: Dec 10, 2025 • Age: 11 hours

Current Status

Altitude 358.0 km
Velocity 7.70 km/s
Sub-Earth Point 41.73°N, 87.5°W
Launch Date Feb 21, 2025
Age 0.7 years
Type internet

Technical Details

Classification Payload
Mass 960.00 kg
Dry Mass 910.00 kg
Total Mass 960.00 kg
Length 0.30 m
Diameter 4.10 m
Span 29.00 m
Shape Box + pan
Manufacturer SPXS
Bus Type Starlink V2MD
Phase Status In Orbit
Owner/State SPXS/US

Large Constellations

Loading constellations...